This is the latest recevied weather packets stored in our database for station/object KC9MWQ-13. If no packets are shown the sender has not sent any weather packets the latest 10 day(s).
| Time | Temp. | Humidity | Pressure | Rain* | Wind** | Luminosity | Snow |
|---|---|---|---|---|---|---|---|
| 1777947517 | 20° C | 66% | 1003.5 hPa | 0 mm | - | 0 W/m² | - |
| 1777947213 | 20° C | 65% | 1003.8 hPa | 0 mm | - | 0 W/m² | - |
| 1777946909 | 20° C | 65% | 1003.6 hPa | 0 mm | - | 0 W/m² | - |
| 1777946604 | 20° C | 64% | 1003.6 hPa | 0 mm | - | 0 W/m² | - |
| 1777946302 | 20.56° C | 63% | 1003.5 hPa | 0 mm | - | 0 W/m² | - |
| 1777945999 | 20° C | 63% | 1003.3 hPa | 0 mm | - | 0 W/m² | - |
| 1777945696 | 20.56° C | 62% | 1003.4 hPa | 0 mm | - | 0 W/m² | - |
| 1777945393 | 20.56° C | 62% | 1003.5 hPa | 0 mm | - | 0 W/m² | - |
| 1777945089 | 20.56° C | 61% | 1003.2 hPa | 0 mm | - | 0 W/m² | - |
| 1777944787 | 20.56° C | 62% | 1003.4 hPa | 0 mm | - | 0 W/m² | - |
| 1777944485 | 20.56° C | 61% | 1003.2 hPa | 0 mm | - | 0 W/m² | - |
| 1777944182 | 21.11° C | 60% | 1003.2 hPa | 0 mm | - | 0 W/m² | - |
| 1777943878 | 21.11° C | 60% | 1003.1 hPa | 0 mm | - | 0 W/m² | - |
| 1777943575 | 21.11° C | 59% | 1003.3 hPa | 0 mm | - | 0 W/m² | - |
| 1777943270 | 21.11° C | 60% | 1003.3 hPa | 0 mm | - | 0 W/m² | - |
| 1777942966 | 21.67° C | 58% | 1003.2 hPa | 0 mm | - | 0 W/m² | - |
| 1777942663 | 21.67° C | 58% | 1003.3 hPa | 0 mm | - | 0 W/m² | - |
| 1777942354 | 21.67° C | 59% | 1003.2 hPa | 0 mm | - | 0 W/m² | - |
| 1777942051 | 21.67° C | 59% | 1003.1 hPa | 0 mm | - | 0 W/m² | - |
| 1777941747 | 21.67° C | 57% | 1003.1 hPa | 0 mm | - | 0 W/m² | - |
| 1777941445 | 21.67° C | 58% | 1003.2 hPa | 0 mm | - | 0 W/m² | - |
| 1777941143 | 21.67° C | 56% | 1003.2 hPa | 0 mm | - | 0 W/m² | - |
| 1777940838 | 22.22° C | 56% | 1003.2 hPa | 0 mm | - | 0 W/m² | - |
| 1777940536 | 22.22° C | 55% | 1003 hPa | 0 mm | - | 2 W/m² | - |
| 1777940234 | 22.22° C | 55% | 1003.2 hPa | 0 mm | - | 4 W/m² | - |
* Rain latest hour (hover to see other rain measurements)
** Current wind speed in m/s (hover to see current wind gust speed)